CAPE
682 1064 788 1428 1045 1038 1091 1161 898 885 766 620 428 228 59 0 0 0 2 59 51 48 13 4 4 4 0 0 0 0 0 0 0 0 0 0 3 9 1 2 7 0 0
838 1148 961 1494 1312 1208 1201 1143 937 826 673 463 396 156 0 0 0 0 9 52 12 2 1 2 1 1 0 0 0 0 0 0 0 0 0 0 0 0 1 0 0 0 0
737 1104 1255 1415 1261 1298 1093 959 847 765 661 501 171 73 0 0 0 2 13 57 28 3 1 1 1 0 0 0 0 0 0 0 0 0 0 0 0 0 0 0 0 0 0
559 1095 1241 1188 1211 1169 978 835 780 788 655 166 52 1 0 0 107 65 71 63 4 1 0 0 0 0 0 0 0 0 0 0 0 0 0 0 0 13 0 0 1 0 129
671 972 1177 1045 1281 1002 682 716 931 687 175 4 0 0 0 0 175 96 58 5 0 0 0 0 0 0 0 0 0 0 0 0 0 0 0 0 0 29 12 55 73 145 213
404 603 961 1144 1015 700 570 887 681 307 34 2 0 0 0 8 43 12 0 0 0 0 0 0 0 0 0 0 0 0 0 0 0 0 0 0 0 41 97 100 97 103 87
462 686 808 471 757 983 772 553 347 228 43 12 0 0 1 11 44 3 0 0 0 0 0 0 0 0 0 0 0 0 0 0 0 0 0 0 0 0 93 72 21 13 8
280 313 317 211 163 279 330 389 364 170 52 15 0 0 1 3 6 9 0 0 0 1 0 0 0 0 0 0 0 0 0 0 0 0 0 0 0 0 65 42 2 6 1
193 152 95 50 46 83 181 222 273 180 48 19 11 17 13 2 2 5 2 15 19 32 0 0 0 0 0 0 0 0 0 0 0 0 0 0 0 0 43 30 3 6 5
166 93 42 37 33 33 45 167 165 158 45 29 23 14 2 4 17 19 12 20 70 50 0 0 0 0 0 0 0 0 0 0 0 0 0 0 0 31 55 26 13 12 4
154 80 36 26 35 31 34 87 183 142 53 30 23 5 0 0 15 22 18 36 82 38 0 0 0 0 0 0 0 0 0 0 0 0 0 26 12 83 48 29 15 9 3
160 64 26 26 29 36 41 40 106 93 49 27 15 4 0 0 6 13 32 47 71 69 6 0 0 0 0 0 0 0 0 0 0 0 0 84 152 117 35 14 6 4 2
175 80 40 32 27 28 32 27 19 69 48 19 2 0 0 0 0 8 26 48 59 61 11 0 0 0 0 0 0 0 0 0 0 0 14 80 106 46 7 6 1 1 0
301 202 100 34 0 0 0 9 3 30 41 21 3 0 0 0 0 3 7 16 31 38 18 5 0 0 0 0 0 0 0 0 0 0 0 0 0 0 2 5 3 2 0
450 365 193 68 0 0 0 0 0 0 15 13 0 0 0 0 0 0 1 3 14 15 8 0 0 0 0 0 0 0 0 0 0 0 0 0 0 0 0 3 3 4 3
411 420 335 320 160 0 0 0 0 0 0 0 0 0 0 0 0 0 0 0 4 9 0 0 0 0 0 0 0 0 0 0 0 0 0 0 0 0 0 0 0 3 4
247 195 254 359 295 256 41 0 0 0 0 0 0 0 15 0 0 0 0 0 0 0 0 0 0 0 0 0 0 0 0 0 0 0 0 0 0 0 0 0 0 2 4
339 336 301 298 354 323 322 175 45 46 5 0 0 0 0 0 0 0 0 0 0 0 0 0 0 0 0 0 0 0 0 0 0 0 0 0 0 0 0 0 0 0 5
278 390 417 474 421 293 392 340 295 263 288 194 25 0 0 0 0 0 0 0 0 11 14 0 0 0 0 0 0 0 0 0 0 0 0 0 0 0 0 0 0 0 0
0 0 142 427 480 456 325 230 280 335 324 419 304 236 126 0 0 0 3 19 33 53 71 77 88 5 0 0 0 0 0 0 0 0 0 0 0 0 0 0 0 0 0
0 0 0 0 0 68 434 456 391 375 379 350 362 476 416 320 174 25 0 0 0 1 39 65 84 75 6 0 0 0 0 0 0 0 0 0 0 0 0 0 0 0 0
0 0 0 0 0 0 0 0 105 289 409 412 338 256 219 285 324 281 139 28 2 2 3 3 39 10 12 0 0 0 0 0 0 0 0 0 0 0 0 0 0 0 0
0 0 0 0 0 0 0 0 0 0 0 3 30 80 76 133 204 174 110 58 2 2 8 22 12 11 36 0 0 0 0 0 0 0 0 0 0 0 0 0 0 0 0
0 0 0 0 0 0 0 0 0 0 0 0 0 0 0 0 0 5 54 57 54 12 0 0 0 0 0 0 0 0 0 0 0 0 0 0 0 0 0 0 0 0 0
0 0 0 0 0 0 0 0 0 0 0 0 0 0 0 0 0 0 0 93 25 20 48 2 34 41 7 33 0 0 0 0 0 0 0 0 0 0 0 0 0 0 0
0 0 0 0 0 0 0 0 0 0 0 0 0 0 0 0 0 0 0 0 45 29 38 28 37 35 9 0 0 0 0 0 0 0 0 0 0 0 0 0 0 0 0
CIN
-208 -135 -153 -69 -83 -71 -49 -28 -30 -21 -15 -11 -17 -32 -144 0 0 0 -1 0 0 0 -4 0 0 -4 0 0 0 0 -6 0 0 0 0 0 0 0 0 0 -1 0 0
-226 -134 -141 -68 -68 -68 -54 -51 -56 -50 -44 -42 -33 -77 0 0 0 0 -4 0 0 0 0 0 0 0 0 0 0 0 0 0 0 0 0 0 0 0 0 0 0 0 0
-239 -141 -94 -73 -79 -63 -67 -77 -83 -72 -60 -51 -92 -130 0 0 0 0 0 -132 0 0 0 0 0 0 0 0 0 0 0 0 0 0 0 0 0 0 0 0 0 0 0
-267 -141 -97 -87 -84 -78 -85 -94 -86 -73 -71 -130 -104 0 0 0 -38 -77 -78 -98 0 0 0 0 0 0 0 0 0 0 0 0 0 0 0 0 0 0 0 0 0 0 -71
-228 -156 -105 -104 -72 -85 -124 -113 -70 -86 -156 -29 0 0 0 0 -44 -70 -83 -1 0 0 0 0 0 0 0 0 0 0 0 0 0 0 0 0 0 -12 0 -62 -67 -58 -49
-264 -201 -125 -101 -104 -126 -135 -84 -96 -144 -169 -14 0 0 0 0 -84 0 0 0 0 0 0 0 0 0 0 0 0 0 0 0 0 0 0 0 0 -11 -37 -39 -54 -68 -84
-230 -162 -128 -180 -129 -96 -116 -123 -145 -156 -185 -210 0 0 0 -67 -163 0 0 0 0 0 0 0 0 0 0 0 0 0 0 0 0 0 0 0 0 0 -42 -76 -26 -47 -5
-253 -222 -205 -220 -230 -194 -171 -163 -158 -180 -218 -272 0 0 0 0 0 -111 0 0 0 0 0 0 0 0 0 0 0 0 0 0 0 0 0 0 0 0 -85 -129 0 0 -1
-237 -246 -271 -289 -282 -260 -205 -192 -175 -188 -260 -314 -348 -312 -295 -127 0 0 0 -234 -170 -183 0 0 0 0 0 0 0 0 0 0 0 0 0 0 0 0 -124 -162 0 -1 0
-226 -257 -309 -302 -308 -315 -288 -209 -190 -189 -280 -329 -364 -372 -299 -362 -289 -277 -314 -258 -168 -174 0 0 0 0 0 0 0 0 0 0 0 0 0 0 0 -148 -113 -172 -1 0 0
-225 -259 -311 -326 -316 -325 -319 -244 -194 -199 -286 -334 -374 -437 0 0 -371 -335 -346 -279 -184 -221 0 0 0 0 0 0 0 0 0 0 0 0 0 -142 -38 -92 -135 -137 -6 -2 0
-217 -261 -306 -322 -326 -308 -291 -296 -218 -222 -313 -371 -400 -443 0 0 -430 -376 -310 -256 -190 -192 -217 0 0 0 0 0 0 0 0 0 0 0 0 -106 -61 -74 -135 -3 -2 -1 0
-201 -239 -273 -310 -335 -325 -302 -296 -300 -227 -288 -365 -131 0 0 0 -50 -396 -329 -264 -239 -218 -331 0 0 0 0 0 0 0 0 0 0 0 -102 -111 -91 -124 -2 -3 -3 0 0
-166 -190 -222 -280 0 0 0 -282 -107 -258 -255 -306 -147 0 0 0 0 -373 -376 -322 -291 -271 -310 -391 0 0 0 0 0 0 0 0 0 0 0 0 0 0 0 0 0 0 0
-103 -150 -194 -230 0 0 -7 0 0 0 -150 -150 0 0 0 0 0 0 -165 -273 -294 -288 -321 -84 0 0 0 0 0 0 0 0 0 0 0 0 0 0 0 0 0 0 0
-85 -87 -130 -150 -200 0 -6 0 0 0 0 0 0 0 0 0 0 0 0 0 -246 -286 0 0 0 0 0 0 0 0 0 0 0 0 0 0 0 0 0 0 0 0 0
-96 -85 -84 -96 -130 -164 -184 0 0 0 0 0 0 0 -155 0 0 0 0 0 0 0 0 0 0 0 0 0 0 0 0 0 0 0 0 0 0 0 0 0 0 0 0
-95 -100 -76 -96 -81 -81 -91 -114 -136 -143 -28 0 0 0 0 0 0 0 0 0 0 0 0 0 0 0 0 0 0 0 0 0 0 0 0 0 0 0 0 0 0 0 -1
-95 -97 -82 -71 -64 -72 -56 -53 -55 -53 -57 -67 -52 0 0 0 0 0 0 0 0 -48 -52 0 0 0 0 0 0 0 0 0 0 0 0 0 0 0 0 0 0 0 0
0 0 -146 -76 -68 -56 -65 -71 -62 -51 -37 -31 -40 -36 -55 0 0 0 -28 -101 -107 -82 -78 -87 -61 -69 0 0 0 0 0 0 0 0 0 0 0 0 0 0 0 0 0
0 0 0 0 0 -93 -53 -37 -40 -37 -40 -44 -38 -39 -42 -46 -51 -78 0 0 0 -5 -66 -72 -71 -59 -55 0 0 0 0 0 0 0 0 0 0 0 0 0 0 0 0
0 0 0 0 0 0 0 0 -43 -42 -39 -37 -56 -59 -61 -48 -45 -37 -48 -55 -41 -18 -43 -21 -65 -60 -60 0 0 0 0 0 0 0 0 0 0 0 0 0 0 0 0
0 0 0 0 0 0 0 0 0 0 0 -29 -37 -25 -26 -59 -49 -49 -62 -51 -4 -61 -45 -50 -25 -36 -56 0 0 0 0 0 0 0 0 0 0 0 0 0 0 0 0
0 0 0 0 0 0 0 0 0 0 0 0 0 0 0 0 0 -10 -43 -43 -46 -45 0 0 0 0 0 0 0 0 0 0 0 0 0 0 0 0 0 0 0 0 0
0 0 0 0 0 0 0 0 0 0 0 0 0 0 0 0 0 0 0 -32 -24 -43 -44 -2 -27 -11 -22 -18 0 0 0 0 0 0 0 0 0 0 0 0 0 0 0
0 0 0 0 0 0 0 0 0 0 0 0 0 0 0 0 0 0 0 0 -49 -27 -19 -19 -35 -19 -17 0 0 0 0 0 0 0 0 0 0 0 0 0 0 0 0
Wind_Speed
5 9 11 12 13 15 16 17 18 19 20 20 19 20 19 19 20 20 20 21 22 21 20 20 19 18 17 17 17 16 16 17 18 18 18 18 19 19 19 19 19 19 19
11 9 11 12 13 14 16 18 19 20 20 20 20 20 20 19 19 19 19 20 21 21 21 20 20 18 18 17 17 17 17 17 18 18 18 18 18 18 19 18 19 19 19
10 9 12 13 14 15 16 18 20 21 20 20 19 19 19 19 19 19 19 19 20 20 20 20 19 19 18 17 17 17 17 17 17 18 18 18 18 18 18 18 18 18 18
10 10 11 12 13 14 16 18 19 20 20 20 19 19 19 19 19 19 19 19 19 19 20 20 20 19 19 18 18 17 17 17 16 15 17 18 18 19 16 17 17 17 18
8 8 10 11 12 13 15 16 17 18 18 18 19 19 19 19 19 20 19 18 18 19 20 20 20 19 19 18 18 18 17 18 17 16 17 18 18 19 16 17 17 18 20
8 9 11 11 10 11 12 13 15 16 16 17 18 19 19 19 19 18 18 18 18 18 19 19 19 19 19 18 17 17 18 18 18 17 17 18 18 18 17 17 17 17 18
6 8 9 9 8 9 10 11 11 12 14 16 17 17 17 17 17 17 17 17 18 18 18 18 18 18 18 17 16 17 18 17 16 17 18 18 17 17 16 16 16 17 18
7 5 5 5 5 6 7 8 9 10 11 13 14 15 16 16 16 16 16 16 16 17 17 17 17 17 16 16 16 16 17 16 16 17 17 17 17 16 15 15 16 17 17
4 4 3 2 3 4 5 6 7 7 9 10 12 13 13 14 14 14 14 15 15 15 15 15 15 15 15 15 15 16 17 16 16 16 17 16 15 15 14 15 16 16 17
2 1 2 2 2 2 3 3 5 5 6 8 10 10 11 12 12 12 12 12 13 13 14 14 14 14 14 14 14 14 16 16 16 16 17 15 15 14 14 15 15 16 16
1 1 2 3 2 1 2 3 3 4 5 6 7 8 9 10 10 10 10 10 10 11 12 13 13 13 13 14 14 14 16 16 14 15 16 14 13 13 14 14 16 16 16
1 0 2 2 2 0 2 3 3 3 4 5 5 6 7 7 7 8 8 8 8 9 9 10 11 12 13 14 15 15 16 16 14 14 14 14 13 13 13 14 15 15 15
3 3 2 0 0 1 3 2 3 2 3 3 3 4 5 5 5 6 6 6 7 7 8 10 11 11 12 14 15 14 16 15 12 12 12 12 12 12 14 15 14 14 14
6 6 4 4 3 2 3 1 1 2 2 2 1 2 3 3 3 4 4 5 6 5 7 9 11 13 14 15 16 16 16 15 11 11 11 10 11 12 12 13 13 13 13
12 9 7 8 6 4 4 3 2 2 2 1 1 1 2 2 1 2 3 4 6 6 7 9 12 13 14 14 15 15 16 16 13 11 11 9 10 11 11 11 12 13 12
18 17 13 11 11 6 5 5 3 3 2 3 2 2 2 3 2 3 4 4 6 7 8 9 10 11 13 14 15 16 17 17 15 11 11 10 9 10 10 10 11 11 11
17 17 18 15 13 11 9 6 7 6 5 5 4 4 4 4 4 6 6 6 7 8 9 11 12 14 14 16 16 18 17 17 17 14 14 12 11 11 11 10 10 9 9
17 16 17 17 16 14 12 11 10 10 8 6 7 7 6 6 7 8 9 9 11 11 12 13 13 15 15 15 17 19 18 19 19 18 16 14 14 14 13 12 10 9 8
19 19 17 15 15 15 14 15 14 14 14 13 11 10 9 9 9 10 11 12 13 14 14 15 16 16 17 18 19 20 20 20 20 20 18 17 16 17 16 15 13 12 10
16 17 19 19 20 20 21 22 22 20 18 17 17 16 16 16 14 14 15 15 16 16 17 18 18 18 20 21 22 22 21 23 23 22 21 20 18 18 17 17 17 14 14
16 16 17 18 20 20 20 21 23 23 21 18 18 19 19 19 21 20 19 21 21 20 20 20 20 20 21 22 25 27 27 26 25 23 23 22 22 20 19 19 17 16 16
20 19 19 21 23 23 22 22 22 22 22 23 25 23 23 23 22 24 24 23 22 22 22 22 22 25 26 23 27 29 32 33 29 26 24 24 23 22 21 19 18 17 17
21 22 22 24 24 24 25 24 23 24 24 25 26 26 25 24 25 26 26 27 25 24 24 23 23 24 27 26 23 27 31 33 33 29 26 26 25 24 24 22 21 21 20
21 21 22 23 25 25 24 24 26 29 30 29 29 29 31 30 29 28 26 24 24 23 24 24 24 25 27 30 29 26 29 31 35 39 31 29 28 28 27 26 25 24 22
22 23 23 23 23 23 23 23 25 27 28 29 29 31 32 32 30 28 25 23 22 22 22 22 24 24 24 27 27 29 27 31 32 35 42 36 32 31 31 31 30 27 25
22 22 23 22 23 23 23 24 25 27 28 27 27 28 29 30 29 27 24 22 22 22 22 23 23 23 23 25 27 27 29 30 32 34 38 40 42 38 32 34 33 30 27
Wind_Direction
85 90 84 78 75 72 68 70 71 73 71 69 64 61 55 53 51 52 59 59 59 53 50 48 46 47 47 47 46 45 42 39 33 29 24 20 20 30 20 26 25 23 26
101 96 93 87 79 70 69 69 73 73 73 68 66 56 52 51 51 53 61 62 57 54 52 50 49 50 51 50 48 47 46 42 34 31 26 23 22 24 22 27 23 24 24
103 98 99 93 87 80 74 75 75 76 71 63 57 50 47 50 51 57 64 65 59 51 47 46 48 49 49 50 52 52 48 43 35 33 30 25 22 21 22 24 22 22 24
105 102 101 99 92 85 85 81 78 74 68 62 53 48 49 50 48 67 63 65 55 50 46 48 50 51 51 53 55 50 40 31 31 40 27 22 17 9 26 26 21 23 14
103 101 102 101 101 89 87 84 80 74 62 52 47 50 52 56 56 59 59 55 52 50 50 52 52 51 52 53 53 46 33 20 31 48 35 24 16 11 34 14 31 31 26
109 105 106 103 96 92 84 81 78 69 56 49 50 53 58 59 58 58 56 57 55 54 57 58 56 53 49 48 43 33 21 25 41 42 36 27 22 20 30 28 26 23 17
119 112 105 102 92 93 85 80 72 60 55 52 49 54 62 61 60 60 60 60 59 60 60 58 54 49 46 43 36 29 23 32 43 30 26 24 21 18 22 17 17 7 360
121 123 107 93 82 83 84 80 75 67 53 48 51 57 62 58 61 62 63 62 63 62 59 54 50 50 46 41 34 28 17 32 30 25 23 21 18 17 21 20 14 9 8
123 128 126 104 79 78 81 83 75 63 52 46 49 54 55 59 61 58 58 59 60 55 49 46 44 43 41 37 33 28 22 30 31 28 24 22 25 26 33 27 17 13 11
146 136 143 123 102 87 68 67 72 57 51 51 57 57 55 55 58 60 61 59 58 50 44 40 36 35 31 27 26 25 19 18 23 21 17 25 26 32 32 26 22 15 11
272 90 127 131 122 66 350 355 48 69 60 55 59 63 64 66 62 59 56 55 50 44 37 33 29 25 20 16 14 13 6 7 16 16 13 18 26 27 25 22 17 11 9
228 91 108 127 145 128 319 331 5 40 43 43 51 64 65 67 60 54 46 49 33 31 29 24 19 14 7 3 359 355 357 359 8 12 11 14 17 17 12 10 10 10 8
256 277 277 342 321 211 303 315 342 1 12 23 44 60 60 53 37 30 30 29 18 19 8 2 358 355 352 350 349 351 350 355 5 7 10 12 10 7 1 357 0 3 3
272 270 275 289 299 300 310 289 316 327 336 348 40 55 36 20 20 20 20 16 7 1 347 342 339 336 334 334 333 336 339 345 353 356 357 0 358 356 355 357 356 357 355
270 283 279 280 283 284 306 317 317 310 300 306 316 337 3 16 1 352 348 347 347 341 332 328 327 327 325 326 327 328 328 331 335 338 341 347 349 351 350 350 351 348 348
268 271 276 281 287 276 280 298 309 314 300 297 292 276 289 309 293 306 306 302 319 323 325 322 322 321 320 320 318 319 319 322 325 323 325 328 332 337 341 341 340 343 343
270 273 271 274 281 289 287 280 298 303 301 295 286 285 276 275 289 302 299 293 299 307 312 314 313 316 317 317 313 314 313 313 315 312 312 312 316 319 325 327 329 331 334
272 275 279 280 278 283 288 293 295 299 294 282 284 286 274 277 284 294 299 295 301 302 305 306 306 306 304 308 309 309 309 309 308 307 306 305 306 309 311 312 311 312 316
272 277 280 283 286 283 281 288 291 294 298 297 298 293 286 289 287 286 292 296 299 298 298 301 303 302 303 304 304 305 305 305 304 305 300 298 298 301 303 303 300 298 299
282 283 281 282 285 287 287 288 291 294 293 294 297 295 298 297 294 292 293 295 298 296 295 297 296 298 302 301 304 302 302 303 303 300 298 296 294 294 294 295 296 292 292
286 289 290 291 290 289 289 291 291 293 294 292 289 294 298 297 299 299 297 297 297 294 292 292 295 292 295 301 305 303 302 301 299 297 296 294 291 289 289 290 290 287 287
282 289 290 291 291 292 293 293 294 297 296 294 298 296 297 299 299 302 301 300 296 294 294 294 291 297 298 296 300 304 302 303 298 293 291 289 288 288 284 283 284 281 280
284 288 292 294 296 296 294 294 296 299 300 300 300 300 301 301 301 300 301 302 301 298 296 293 293 292 296 298 293 299 305 302 307 307 294 289 287 285 286 283 281 280 278
285 292 296 298 300 301 300 298 296 294 294 297 299 301 301 302 303 303 303 304 304 305 302 300 300 296 297 297 299 291 296 301 301 303 305 301 291 288 286 285 283 281 278
286 290 297 301 303 305 306 306 303 300 300 302 303 303 302 302 305 304 304 302 304 305 306 307 307 303 298 297 297 302 293 296 299 293 300 301 299 292 287 284 282 281 278
288 292 296 298 301 305 307 306 305 305 306 309 312 311 309 309 307 310 309 304 304 307 308 310 314 314 311 306 305 302 301 304 301 296 300 300 297 295 296 286 282 281 278